DLH2TK EDDM-EGLL

Flight info

Callsign DLH2TK
Flight time 1h 37m
Altitude 34000
Route EDDM/26R GIVMI Y101 INBED DCT REKDI DCT LOHRE DCT ADKUV DCT DENUT L608 LOGAN
Aircraft A321/M-SDE2E3FGIJ1LORWXYZ/HB1

Departure

Time 2026-05-07 16:05
Airport Munich Airport (EDDM)

Arrival

Time 2026-05-07 17:43
Airport London Heathrow Airport (EGLL)
Time Latitude Longitude Altitude Speed Heading
2026-05-07 15:34 48.35247 11.79767 1467 ft 0 kts 84°
2026-05-07 15:52 48.35247 11.79766 1467 ft 1 kts 84°
2026-05-07 15:52 48.35244 11.79731 1464 ft 4 kts 79°
2026-05-07 15:52 48.35238 11.79691 1459 ft 4 kts 70°
2026-05-07 15:53 48.35226 11.79655 1459 ft 4 kts 51°
2026-05-07 15:53 48.35208 11.79635 1458 ft 3 kts 356°
2026-05-07 15:53 48.35205 11.79635 1458 ft 1 kts 353°
2026-05-07 15:56 48.35209 11.79634 1458 ft 4 kts 353°
2026-05-07 15:56 48.35270 11.79624 1460 ft 10 kts 354°
2026-05-07 15:56 48.35345 11.79611 1467 ft 10 kts 353°
2026-05-07 15:56 48.35354 11.79609 1467 ft 1 kts 353°
2026-05-07 15:57 48.35367 11.79607 1463 ft 3 kts 353°
2026-05-07 15:57 48.35421 11.79598 1464 ft 11 kts 353°
2026-05-07 15:57 48.35503 11.79583 1462 ft 12 kts 354°
2026-05-07 15:57 48.35593 11.79570 1458 ft 14 kts 354°
2026-05-07 15:58 48.35691 11.79551 1460 ft 15 kts 352°
2026-05-07 15:58 48.35795 11.79531 1461 ft 15 kts 354°
2026-05-07 15:58 48.35899 11.79515 1463 ft 11 kts 354°
2026-05-07 15:58 48.35964 11.79505 1460 ft 7 kts 354°
2026-05-07 15:59 48.36011 11.79498 1460 ft 0 kts 354°
2026-05-07 15:59 48.36018 11.79496 1459 ft 2 kts 354°
2026-05-07 15:59 48.36037 11.79493 1463 ft 4 kts 354°
2026-05-07 15:59 48.36069 11.79488 1467 ft 5 kts 353°
2026-05-07 16:00 48.36107 11.79480 1468 ft 8 kts 352°
2026-05-07 16:00 48.36172 11.79473 1468 ft 10 kts
2026-05-07 16:00 48.36217 11.79551 1465 ft 11 kts 73°
2026-05-07 16:00 48.36228 11.79674 1468 ft 12 kts 84°
2026-05-07 16:01 48.36236 11.79808 1468 ft 14 kts 83°
2026-05-07 16:01 48.36256 11.79953 1465 ft 15 kts 79°
2026-05-07 16:01 48.36263 11.80116 1468 ft 16 kts 84°
2026-05-07 16:01 48.36275 11.80287 1468 ft 17 kts 84°
2026-05-07 16:02 48.36288 11.80474 1468 ft 18 kts 83°
2026-05-07 16:02 48.36306 11.80667 1467 ft 19 kts 81°
2026-05-07 16:02 48.36322 11.80872 1467 ft 20 kts 83°
2026-05-07 16:02 48.36339 11.81085 1459 ft 21 kts 83°
2026-05-07 16:03 48.36356 11.81309 1463 ft 22 kts 83°
2026-05-07 16:03 48.36373 11.81544 1463 ft 23 kts 84°
2026-05-07 16:03 48.36393 11.81788 1461 ft 24 kts 83°
2026-05-07 16:03 48.36394 11.82016 1463 ft 17 kts 66°
2026-05-07 16:04 48.36446 11.82036 1461 ft 11 kts 342°
2026-05-07 16:04 48.36573 11.81988 1466 ft 22 kts 353°
2026-05-07 16:04 48.36676 11.81926 1462 ft 12 kts 276°
2026-05-07 16:04 48.36664 11.81785 1462 ft 15 kts 263°
2026-05-07 16:05 48.36631 11.81361 1465 ft 77 kts 264°
2026-05-07 16:05 48.36545 11.80236 1464 ft 140 kts 263°
2026-05-07 16:05 48.36421 11.78547 1670 ft 172 kts 266°
2026-05-07 16:05 48.36324 11.76791 2482 ft 167 kts 268°
2026-05-07 16:06 48.36235 11.75042 3247 ft 168 kts 268°
2026-05-07 16:06 48.36143 11.73305 3959 ft 166 kts 267°
2026-05-07 16:06 48.36040 11.71565 4546 ft 171 kts 265°
2026-05-07 16:06 48.35875 11.69688 4868 ft 191 kts 264°
2026-05-07 16:07 48.35976 11.67599 5095 ft 214 kts 289°
2026-05-07 16:07 48.36703 11.65508 5384 ft 238 kts 300°
2026-05-07 16:07 48.37600 11.63289 5791 ft 256 kts 301°
2026-05-07 16:07 48.38543 11.60979 6527 ft 261 kts 301°
2026-05-07 16:08 48.39497 11.58649 7281 ft 263 kts 300°
2026-05-07 16:08 48.40462 11.56286 8032 ft 266 kts 300°
2026-05-07 16:08 48.41434 11.53898 8791 ft 269 kts 300°
2026-05-07 16:08 48.42417 11.51485 9565 ft 272 kts 299°
2026-05-07 16:09 48.43409 11.49048 10284 ft 274 kts 299°
2026-05-07 16:09 48.44418 11.46593 10965 ft 278 kts 302°
2026-05-07 16:09 48.45742 11.44429 11640 ft 285 kts 318°
2026-05-07 16:09 48.47477 11.42860 12078 ft 304 kts 334°
2026-05-07 16:10 48.49611 11.42041 12215 ft 329 kts 347°
2026-05-07 16:10 48.51161 11.41630 12420 ft 339 kts 347°
2026-05-07 16:10 48.53505 11.41013 12971 ft 344 kts 346°
2026-05-07 16:10 48.55846 11.40392 13611 ft 348 kts 346°
2026-05-07 16:11 48.58241 11.39747 14211 ft 351 kts 346°
2026-05-07 16:11 48.60655 11.39089 14818 ft 354 kts 346°
2026-05-07 16:11 48.63088 11.38420 15409 ft 356 kts 346°
2026-05-07 16:11 48.65536 11.37740 16015 ft 359 kts 346°
2026-05-07 16:12 48.67992 11.37036 16601 ft 360 kts 343°
2026-05-07 16:12 48.70318 11.35700 17137 ft 358 kts 330°
2026-05-07 16:12 48.72585 11.34108 17740 ft 361 kts 334°
2026-05-07 16:12 48.74925 11.32684 18310 ft 364 kts 335°
2026-05-07 16:13 48.77302 11.31331 18780 ft 367 kts 336°
2026-05-07 16:13 48.79705 11.29985 19269 ft 369 kts 336°
2026-05-07 16:13 48.82117 11.28615 19767 ft 371 kts 336°
2026-05-07 16:13 48.84532 11.27206 20279 ft 373 kts 335°
2026-05-07 16:14 48.86952 11.25761 20800 ft 375 kts 335°
2026-05-07 16:14 48.89383 11.24288 21287 ft 377 kts 335°
2026-05-07 16:14 48.91822 11.22799 21761 ft 379 kts 335°
2026-05-07 16:14 48.94274 11.21298 22237 ft 381 kts 335°
2026-05-07 16:15 48.96735 11.19793 22698 ft 383 kts 335°
2026-05-07 16:15 48.99217 11.18277 23168 ft 386 kts 335°
2026-05-07 16:15 49.01720 11.16753 23562 ft 389 kts 336°
2026-05-07 16:15 49.04240 11.15217 23940 ft 391 kts 336°
2026-05-07 16:16 49.06774 11.13671 24326 ft 393 kts 336°
2026-05-07 16:16 49.09319 11.12114 24700 ft 395 kts 336°
2026-05-07 16:16 49.11875 11.10547 25084 ft 397 kts 335°
2026-05-07 16:16 49.14444 11.08973 25460 ft 399 kts 336°
2026-05-07 16:17 49.17022 11.07397 25854 ft 400 kts 336°
2026-05-07 16:17 49.19613 11.05811 26225 ft 402 kts 336°
2026-05-07 16:17 49.22222 11.04221 26628 ft 404 kts 336°
2026-05-07 16:17 49.24850 11.02626 26900 ft 409 kts 337°
2026-05-07 16:18 49.27501 11.01019 27221 ft 411 kts 337°
2026-05-07 16:18 49.30172 10.99397 27564 ft 414 kts 337°
2026-05-07 16:18 49.32855 10.97764 27915 ft 416 kts 337°
2026-05-07 16:18 49.35537 10.96081 28250 ft 417 kts 333°
2026-05-07 16:19 49.38020 10.93896 28586 ft 418 kts 324°
2026-05-07 16:19 49.40262 10.91051 28911 ft 419 kts 314°
2026-05-07 16:19 49.42183 10.87680 29225 ft 421 kts 308°
2026-05-07 16:19 49.44026 10.84171 29567 ft 423 kts 308°
2026-05-07 16:20 49.45883 10.80652 29896 ft 425 kts 308°
2026-05-07 16:20 49.47752 10.77117 30157 ft 428 kts 308°
2026-05-07 16:20 49.49640 10.73545 30425 ft 430 kts 308°
2026-05-07 16:20 49.51518 10.69982 30790 ft 429 kts 308°
2026-05-07 16:21 49.53393 10.66414 31167 ft 428 kts 308°
2026-05-07 16:21 49.55264 10.62847 31451 ft 430 kts 308°
2026-05-07 16:21 49.57154 10.59239 31585 ft 435 kts 308°
2026-05-07 16:21 49.59060 10.55596 31716 ft 439 kts 308°
2026-05-07 16:22 49.60979 10.51926 31945 ft 440 kts 308°
2026-05-07 16:22 49.62896 10.48251 32216 ft 440 kts 308°
2026-05-07 16:22 49.64812 10.44572 32493 ft 440 kts 308°
2026-05-07 16:22 49.66684 10.40831 32762 ft 440 kts 306°
2026-05-07 16:23 49.68464 10.36980 33051 ft 440 kts 304°
2026-05-07 16:23 49.70174 10.33072 33324 ft 439 kts 303°
2026-05-07 16:23 49.71850 10.29129 33582 ft 439 kts 302°
2026-05-07 16:23 49.73524 10.25178 33851 ft 439 kts 302°
2026-05-07 16:24 49.75211 10.21235 34099 ft 440 kts 303°
2026-05-07 16:24 49.76893 10.17357 34294 ft 440 kts 303°
2026-05-07 16:24 49.78612 10.13436 34493 ft 441 kts 303°
2026-05-07 16:24 49.80337 10.09516 34688 ft 441 kts 303°
2026-05-07 16:25 49.82064 10.05583 34885 ft 441 kts 303°
2026-05-07 16:25 49.83788 10.01648 35086 ft 441 kts 303°
2026-05-07 16:25 49.85509 9.97717 35302 ft 441 kts 303°
2026-05-07 16:25 49.87226 9.93785 35528 ft 440 kts 303°
2026-05-07 16:26 49.88940 9.89848 35732 ft 440 kts 303°
2026-05-07 16:26 49.90641 9.85929 35997 ft 439 kts 303°
2026-05-07 16:26 49.92344 9.81993 36050 ft 438 kts 303°
2026-05-07 16:27 49.95730 9.74145 36048 ft 437 kts 302°
2026-05-07 16:27 49.99115 9.66303 36056 ft 437 kts 303°
2026-05-07 16:28 50.02492 9.58457 36062 ft 437 kts 302°
2026-05-07 16:28 50.05809 9.50539 36057 ft 436 kts 297°
2026-05-07 16:29 50.07929 9.41746 36059 ft 435 kts 284°
2026-05-07 16:29 50.09530 9.32648 36065 ft 436 kts 284°
2026-05-07 16:30 50.11131 9.23541 36065 ft 436 kts 284°
2026-05-07 16:30 50.12736 9.14413 36068 ft 437 kts 284°
2026-05-07 16:31 50.14326 9.05282 36076 ft 436 kts 284°
2026-05-07 16:31 50.15892 8.96209 36073 ft 436 kts 284°
2026-05-07 16:32 50.17468 8.87068 36078 ft 436 kts 284°
2026-05-07 16:32 50.19034 8.77922 36080 ft 436 kts 284°
2026-05-07 16:33 50.20595 8.68771 36080 ft 436 kts 284°
2026-05-07 16:33 50.22147 8.59616 36079 ft 436 kts 284°
2026-05-07 16:34 50.23693 8.50465 36075 ft 436 kts 284°
2026-05-07 16:34 50.25234 8.41296 36075 ft 436 kts 284°
2026-05-07 16:35 50.26765 8.32126 36077 ft 436 kts 284°
2026-05-07 16:35 50.28287 8.22952 36080 ft 436 kts 284°
2026-05-07 16:36 50.29803 8.13767 36079 ft 436 kts 284°
2026-05-07 16:36 50.31310 8.04591 36078 ft 436 kts 284°
2026-05-07 16:37 50.32817 7.95405 36081 ft 436 kts 284°
2026-05-07 16:37 50.34310 7.86213 36078 ft 436 kts 283°
2026-05-07 16:38 50.35789 7.77025 36077 ft 435 kts 284°
2026-05-07 16:38 50.37265 7.67839 36077 ft 435 kts 283°
2026-05-07 16:39 50.38734 7.58651 36072 ft 434 kts 283°
2026-05-07 16:39 50.40191 7.49471 36071 ft 434 kts 283°
2026-05-07 16:40 50.41639 7.40289 36075 ft 434 kts 283°
2026-05-07 16:40 50.43082 7.31100 36074 ft 434 kts 283°
2026-05-07 16:41 50.44521 7.21911 36072 ft 434 kts 283°
2026-05-07 16:41 50.45939 7.12770 36070 ft 434 kts 283°
2026-05-07 16:42 50.47363 7.03567 36070 ft 434 kts 283°
2026-05-07 16:42 50.48780 6.94359 36076 ft 434 kts 282°
2026-05-07 16:43 50.50180 6.85151 36077 ft 433 kts 282°
2026-05-07 16:43 50.52081 6.76186 36075 ft 433 kts 290°
2026-05-07 16:44 50.54268 6.67360 36067 ft 433 kts 290°
2026-05-07 16:44 50.56438 6.58523 36065 ft 433 kts 290°
2026-05-07 16:45 50.58602 6.49684 36074 ft 433 kts 290°
2026-05-07 16:45 50.60760 6.40845 36071 ft 432 kts 290°
2026-05-07 16:46 50.62911 6.32001 36070 ft 432 kts 289°
2026-05-07 16:46 50.65049 6.23162 36070 ft 432 kts 289°
2026-05-07 16:47 50.67158 6.14378 36071 ft 431 kts 289°
2026-05-07 16:47 50.69283 6.05532 36076 ft 431 kts 289°
2026-05-07 16:48 50.71402 5.96681 36078 ft 431 kts 289°
2026-05-07 16:48 50.73512 5.87822 36080 ft 431 kts 289°
2026-05-07 16:49 50.75611 5.78946 36076 ft 432 kts 289°
2026-05-07 16:49 50.77708 5.70062 36075 ft 432 kts 289°
2026-05-07 16:50 50.79803 5.61173 36105 ft 432 kts 289°
2026-05-07 16:50 50.81887 5.52279 36103 ft 432 kts 289°
2026-05-07 16:51 50.83970 5.43372 36100 ft 432 kts 289°
2026-05-07 16:51 50.86041 5.34460 36088 ft 431 kts 288°
2026-05-07 16:52 50.88101 5.25540 36090 ft 431 kts 288°
2026-05-07 16:52 50.90161 5.16613 36096 ft 431 kts 288°
2026-05-07 16:53 50.92208 5.07684 36095 ft 431 kts 288°
2026-05-07 16:53 50.94248 4.98745 36094 ft 431 kts 288°
2026-05-07 16:54 50.96270 4.89860 36095 ft 431 kts 288°
2026-05-07 16:54 50.98298 4.80911 36092 ft 431 kts 288°
2026-05-07 16:55 51.00316 4.71954 36095 ft 431 kts 288°
2026-05-07 16:55 51.02326 4.62995 36101 ft 431 kts 288°
2026-05-07 16:56 51.04332 4.54026 36104 ft 431 kts 288°
2026-05-07 16:56 51.07328 4.40563 36103 ft 430 kts 288°
2026-05-07 16:57 51.09315 4.31586 36102 ft 430 kts 288°
2026-05-07 16:57 51.11298 4.22603 36099 ft 430 kts 287°
2026-05-07 16:58 51.13270 4.13611 36098 ft 430 kts 287°
2026-05-07 16:58 51.15234 4.04607 36100 ft 431 kts 287°
2026-05-07 16:59 51.17192 3.95601 36098 ft 430 kts 287°
2026-05-07 16:59 51.19126 3.86644 36096 ft 430 kts 287°
2026-05-07 17:00 51.21076 3.77628 36099 ft 430 kts 287°
2026-05-07 17:00 51.23012 3.68613 36101 ft 430 kts 288°
2026-05-07 17:01 51.25713 3.60095 36099 ft 432 kts 298°
2026-05-07 17:01 51.28786 3.51850 36097 ft 432 kts 298°
2026-05-07 17:02 51.31330 3.44988 36094 ft 432 kts 298°
2026-05-07 17:02 51.34373 3.36680 36084 ft 432 kts 295°
2026-05-07 17:03 51.36653 3.27763 36100 ft 430 kts 289°
2026-05-07 17:03 51.38757 3.18861 36094 ft 431 kts 289°
2026-05-07 17:04 51.40878 3.09887 36102 ft 431 kts 289°
2026-05-07 17:04 51.43000 3.00915 36105 ft 431 kts 289°
2026-05-07 17:05 51.45114 2.91932 36102 ft 431 kts 289°
2026-05-07 17:05 51.47216 2.82938 36098 ft 431 kts 288°
2026-05-07 17:06 51.49300 2.73936 36099 ft 430 kts 288°
2026-05-07 17:06 51.51379 2.64924 36086 ft 430 kts 288°
2026-05-07 17:07 51.52421 2.60402 35378 ft 434 kts 288°
2026-05-07 17:07 51.53460 2.55888 34880 ft 429 kts 288°
2026-05-07 17:07 51.54491 2.51409 34412 ft 425 kts 288°
2026-05-07 17:07 51.55509 2.46970 33920 ft 422 kts 288°
2026-05-07 17:08 51.56511 2.42587 33415 ft 411 kts 288°
2026-05-07 17:08 51.57487 2.38314 32979 ft 404 kts 288°
2026-05-07 17:08 51.58447 2.34106 32516 ft 399 kts 288°
2026-05-07 17:08 51.59398 2.29937 32059 ft 395 kts 288°
2026-05-07 17:09 51.60324 2.25868 31628 ft 390 kts 288°
2026-05-07 17:09 51.61247 2.21799 31195 ft 386 kts 288°
2026-05-07 17:09 51.62159 2.17764 30767 ft 381 kts 288°
2026-05-07 17:09 51.63059 2.13769 30350 ft 377 kts 288°
2026-05-07 17:10 51.63950 2.09820 29893 ft 373 kts 288°
2026-05-07 17:10 51.64830 2.05919 29490 ft 368 kts 288°
2026-05-07 17:10 51.65706 2.02025 29088 ft 362 kts 288°
2026-05-07 17:10 51.66546 1.98284 28711 ft 357 kts 288°
2026-05-07 17:11 51.67382 1.94551 28358 ft 352 kts 288°
2026-05-07 17:11 51.68202 1.90876 27986 ft 346 kts 288°
2026-05-07 17:11 51.69009 1.87251 27633 ft 341 kts 288°
2026-05-07 17:11 51.69807 1.83661 27282 ft 340 kts 288°
2026-05-07 17:12 51.70601 1.80085 26933 ft 338 kts 288°
2026-05-07 17:12 51.71391 1.76522 26589 ft 337 kts 288°
2026-05-07 17:12 51.72175 1.72974 26247 ft 335 kts 287°
2026-05-07 17:12 51.72950 1.69448 25902 ft 333 kts 287°
2026-05-07 17:13 51.73723 1.65932 25548 ft 331 kts 287°
2026-05-07 17:13 51.74328 1.62367 25198 ft 328 kts 278°
2026-05-07 17:13 51.74539 1.58703 24777 ft 336 kts 268°
2026-05-07 17:13 51.74369 1.54883 24244 ft 345 kts 263°
2026-05-07 17:14 51.74113 1.51027 23725 ft 346 kts 263°
2026-05-07 17:14 51.73862 1.47173 23143 ft 345 kts 263°
2026-05-07 17:14 51.73614 1.43343 22627 ft 342 kts 263°
2026-05-07 17:14 51.73367 1.39537 22114 ft 340 kts 263°
2026-05-07 17:15 51.73122 1.35761 21604 ft 338 kts 263°
2026-05-07 17:15 51.72880 1.32009 21101 ft 336 kts 263°
2026-05-07 17:15 51.72638 1.28274 20599 ft 334 kts 263°
2026-05-07 17:15 51.72395 1.24554 20100 ft 332 kts 263°
2026-05-07 17:16 51.72149 1.20855 19602 ft 331 kts 263°
2026-05-07 17:16 51.71901 1.17173 19108 ft 330 kts 263°
2026-05-07 17:16 51.71654 1.13499 18613 ft 329 kts 263°
2026-05-07 17:16 51.71406 1.09841 18085 ft 328 kts 263°
2026-05-07 17:17 51.71159 1.06193 17576 ft 326 kts 263°
2026-05-07 17:17 51.70917 1.02675 17096 ft 315 kts 262°
2026-05-07 17:17 51.70673 0.99140 16628 ft 319 kts 262°
2026-05-07 17:17 51.70429 0.95598 16149 ft 316 kts 262°
2026-05-07 17:18 51.70186 0.92092 15710 ft 313 kts 262°
2026-05-07 17:18 51.69946 0.88613 15293 ft 312 kts 262°
2026-05-07 17:18 51.69706 0.85150 14875 ft 310 kts 262°
2026-05-07 17:18 51.69465 0.81701 14450 ft 308 kts 261°
2026-05-07 17:19 51.69221 0.78270 14044 ft 307 kts 261°
2026-05-07 17:19 51.68978 0.74864 13598 ft 305 kts 261°
2026-05-07 17:19 51.68738 0.71476 13177 ft 304 kts 261°
2026-05-07 17:19 51.68499 0.68105 12766 ft 302 kts 262°
2026-05-07 17:20 51.68262 0.64750 12359 ft 300 kts 262°
2026-05-07 17:20 51.68028 0.61438 12008 ft 295 kts 261°
2026-05-07 17:20 51.67794 0.58206 11575 ft 289 kts 262°
2026-05-07 17:20 51.67560 0.54997 11176 ft 287 kts 261°
2026-05-07 17:21 51.67328 0.51817 10785 ft 285 kts 261°
2026-05-07 17:21 51.67098 0.48653 10399 ft 284 kts 261°
2026-05-07 17:21 51.66869 0.45508 10019 ft 282 kts 261°
2026-05-07 17:21 51.66641 0.42382 9605 ft 280 kts 262°
2026-05-07 17:22 51.66413 0.39281 9229 ft 277 kts 262°
2026-05-07 17:22 51.66187 0.36210 8841 ft 276 kts 262°
2026-05-07 17:22 51.65961 0.33151 8456 ft 273 kts 261°
2026-05-07 17:22 51.65738 0.30173 8118 ft 269 kts 261°
2026-05-07 17:23 51.65511 0.27151 8054 ft 270 kts 262°
2026-05-07 17:23 51.65283 0.24134 8055 ft 270 kts 261°
2026-05-07 17:23 51.65063 0.21261 8052 ft 254 kts 262°
2026-05-07 17:23 51.64855 0.18528 8054 ft 241 kts 262°
2026-05-07 17:24 51.64651 0.15857 8058 ft 243 kts 261°
2026-05-07 17:24 51.64445 0.13029 8053 ft 258 kts 261°
2026-05-07 17:24 51.64223 0.10265 8050 ft 241 kts 261°
2026-05-07 17:24 51.64018 0.07596 8056 ft 239 kts 261°
2026-05-07 17:25 51.63820 0.04945 8054 ft 238 kts 261°
2026-05-07 17:25 51.63618 0.02294 8055 ft 240 kts 262°
2026-05-07 17:25 51.63410 -0.00359 8079 ft 238 kts 261°
2026-05-07 17:25 51.63199 -0.03027 8071 ft 243 kts 261°
2026-05-07 17:26 51.62974 -0.05733 8078 ft 244 kts 261°
2026-05-07 17:26 51.62746 -0.08440 8078 ft 244 kts 261°
2026-05-07 17:26 51.62522 -0.11141 8078 ft 244 kts 261°
2026-05-07 17:26 51.62295 -0.13846 8080 ft 244 kts 261°
2026-05-07 17:27 51.62070 -0.16547 8083 ft 244 kts 261°
2026-05-07 17:27 51.61846 -0.19246 8082 ft 244 kts 261°
2026-05-07 17:27 51.61624 -0.21912 8083 ft 244 kts 261°
2026-05-07 17:27 51.61396 -0.24613 8084 ft 244 kts 261°
2026-05-07 17:28 51.61170 -0.27310 8082 ft 244 kts 261°
2026-05-07 17:28 51.60941 -0.30016 8056 ft 244 kts 261°
2026-05-07 17:28 51.60711 -0.32719 8056 ft 244 kts 261°
2026-05-07 17:28 51.60484 -0.35419 8056 ft 244 kts 261°
2026-05-07 17:29 51.60256 -0.38122 8056 ft 244 kts 261°
2026-05-07 17:29 51.60027 -0.40825 8057 ft 244 kts 261°
2026-05-07 17:29 51.59801 -0.43522 8056 ft 243 kts 261°
2026-05-07 17:29 51.59574 -0.46219 8056 ft 244 kts 261°
2026-05-07 17:30 51.59344 -0.48923 8055 ft 244 kts 261°
2026-05-07 17:30 51.59117 -0.51623 8059 ft 244 kts 261°
2026-05-07 17:30 51.58887 -0.54325 8056 ft 244 kts 261°
2026-05-07 17:30 51.58658 -0.57027 8056 ft 244 kts 261°
2026-05-07 17:31 51.58427 -0.59729 8055 ft 244 kts 261°
2026-05-07 17:31 51.58198 -0.62420 7857 ft 242 kts 261°
2026-05-07 17:31 51.57970 -0.65098 7516 ft 241 kts 261°
2026-05-07 17:31 51.57742 -0.67766 7176 ft 240 kts 261°
2026-05-07 17:32 51.57517 -0.70404 7051 ft 239 kts 261°
2026-05-07 17:32 51.57282 -0.73057 7047 ft 241 kts 261°
2026-05-07 17:32 51.57044 -0.75729 7046 ft 242 kts 261°
2026-05-07 17:32 51.56881 -0.77504 7046 ft 243 kts 261°
2026-05-07 17:33 51.56546 -0.81056 7044 ft 243 kts 261°
2026-05-07 17:33 51.56295 -0.83735 7039 ft 243 kts 261°
2026-05-07 17:33 51.56044 -0.86417 7043 ft 243 kts 261°
2026-05-07 17:33 51.55794 -0.89082 6783 ft 241 kts 261°
2026-05-07 17:34 51.55543 -0.91716 6441 ft 241 kts 261°
2026-05-07 17:34 51.55284 -0.94370 6069 ft 240 kts 261°
2026-05-07 17:34 51.54823 -0.96916 5746 ft 237 kts 238°
2026-05-07 17:34 51.53663 -0.98713 5414 ft 233 kts 206°
2026-05-07 17:35 51.52128 -0.99345 5210 ft 223 kts 182°
2026-05-07 17:35 51.50640 -0.99072 5075 ft 209 kts 163°
2026-05-07 17:35 51.49385 -0.98107 4957 ft 193 kts 144°
2026-05-07 17:35 51.48539 -0.96595 4840 ft 174 kts 117°
2026-05-07 17:36 51.48252 -0.94819 4683 ft 159 kts 92°
2026-05-07 17:36 51.48197 -0.93077 4440 ft 155 kts 93°
2026-05-07 17:36 51.48142 -0.91356 4156 ft 154 kts 93°
2026-05-07 17:36 51.48087 -0.89638 3874 ft 154 kts 93°
2026-05-07 17:37 51.48032 -0.87921 3573 ft 154 kts 93°
2026-05-07 17:37 51.47975 -0.86176 3118 ft 165 kts 94°
2026-05-07 17:37 51.47911 -0.84231 3003 ft 182 kts 93°
2026-05-07 17:37 51.47757 -0.82199 3002 ft 186 kts 100°
2026-05-07 17:38 51.47635 -0.80126 3000 ft 187 kts 93°
2026-05-07 17:38 51.47606 -0.78043 2999 ft 186 kts 91°
2026-05-07 17:38 51.47608 -0.75961 3005 ft 187 kts 90°
2026-05-07 17:38 51.47618 -0.73877 3005 ft 187 kts 90°
2026-05-07 17:39 51.47630 -0.71788 2923 ft 188 kts 90°
2026-05-07 17:39 51.47643 -0.69695 2716 ft 187 kts 91°
2026-05-07 17:39 51.47655 -0.67609 2477 ft 187 kts 90°
2026-05-07 17:39 51.47666 -0.65555 2231 ft 187 kts 91°
2026-05-07 17:40 51.47677 -0.63474 1976 ft 186 kts 91°
2026-05-07 17:40 51.47689 -0.61486 1729 ft 173 kts 91°
2026-05-07 17:40 51.47698 -0.59585 1495 ft 169 kts 91°
2026-05-07 17:40 51.47707 -0.57737 1268 ft 160 kts 91°
2026-05-07 17:41 51.47716 -0.56021 1055 ft 149 kts 91°
2026-05-07 17:41 51.47723 -0.54401 849 ft 142 kts 93°
2026-05-07 17:41 51.47734 -0.52832 678 ft 140 kts 92°
2026-05-07 17:41 51.47747 -0.51286 496 ft 138 kts 93°
2026-05-07 17:42 51.47750 -0.49760 293 ft 136 kts 91°
2026-05-07 17:42 51.47760 -0.48235 122 ft 136 kts 94°
2026-05-07 17:42 51.47753 -0.46777 89 ft 116 kts 89°
2026-05-07 17:42 51.47759 -0.45760 86 ft 66 kts 89°
2026-05-07 17:43 51.47712 -0.45478 86 ft 15 kts 163°
2026-05-07 17:43 51.47610 -0.45459 86 ft 12 kts 166°
2026-05-07 17:43 51.47525 -0.45431 88 ft 13 kts 141°
2026-05-07 17:43 51.47512 -0.45287 90 ft 14 kts 89°
2026-05-07 17:44 51.47511 -0.45120 90 ft 16 kts 91°
2026-05-07 17:44 51.47509 -0.44937 90 ft 16 kts 91°
2026-05-07 17:44 51.47508 -0.44787 88 ft 12 kts 88°
2026-05-07 17:44 51.47509 -0.44645 90 ft 14 kts 99°
2026-05-07 17:45 51.47439 -0.44559 87 ft 14 kts 176°
2026-05-07 17:45 51.47343 -0.44558 86 ft 14 kts 179°
2026-05-07 17:45 51.47258 -0.44557 86 ft 11 kts 180°
2026-05-07 17:45 51.47179 -0.44557 86 ft 10 kts 180°
2026-05-07 17:46 51.47102 -0.44558 86 ft 12 kts 180°
2026-05-07 17:46 51.47050 -0.44558 86 ft 7 kts 179°
2026-05-07 17:46 51.46996 -0.44557 86 ft 9 kts 179°
2026-05-07 17:46 51.46957 -0.44555 86 ft 6 kts 178°
2026-05-07 17:47 51.46909 -0.44553 88 ft 8 kts 178°
2026-05-07 17:47 51.46872 -0.44560 86 ft 3 kts 215°
2026-05-07 17:47 51.46863 -0.44586 88 ft 2 kts 249°
2026-05-07 17:47 51.46861 -0.44601 88 ft 1 kts 261°
2026-05-07 17:48 51.46859 -0.44644 88 ft 5 kts 265°
2026-05-07 17:48 51.46858 -0.44674 89 ft 1 kts 266°
2026-05-07 17:48 51.46858 -0.44678 89 ft 0 kts 266°
2026-05-07 17:48 51.46858 -0.44679 89 ft 0 kts 266°